When you browse on this site, cookies collect data to enhance your experience and personalize the content and advertising you see.
Visit our Privacy Policy to learn more. By continuing to use the site, you agree to this use of cookies and data.
  • en Suisse
  • Liste des pays
  • À 7 jours
  • Température de l'eau
  • Carte météo
  • Widgets météo
  • user-avatar
    Se connecter

    Météo par heure à Luna

    Ce jour, 13 Décembre, Vendredi

    Heure Température Précipitation Vent Pression Humidité
    00:00 -1°C° 0 mm 5 m/s 743 mmHg 94%
    01:00 -1°C° 0 mm 5 m/s 743 mmHg 94%
    02:00 -1°C° 0 mm 4 m/s 742 mmHg 92%
    03:00 -1°C° 0 mm 4 m/s 742 mmHg 92%
    04:00 -1°C° 0 mm 4 m/s 741 mmHg 91%
    05:00 -1°C° 0 mm 3 m/s 741 mmHg 91%
    06:00 -2°C° 0.1 mm 4 m/s 741 mmHg 92%
    07:00 -2°C° 0.1 mm 4 m/s 741 mmHg 92%
    08:00 -2°C° 0 mm 4 m/s 741 mmHg 92%
    09:00 -2°C° 0 mm 4 m/s 741 mmHg 91%
    10:00 -2°C° 0 mm 5 m/s 740 mmHg 90%
    11:00 -2°C° 0 mm 5 m/s 740 mmHg 89%
    12:00 -2°C° 0.1 mm 5 m/s 740 mmHg 89%
    13:00 -2°C° 0.1 mm 5 m/s 739 mmHg 90%
    14:00 -2°C° 0.1 mm 5 m/s 739 mmHg 90%
    15:00 -2°C° 0 mm 5 m/s 739 mmHg 90%
    16:00 -2°C° 0 mm 4 m/s 738 mmHg 90%
    17:00 -3°C° 0 mm 4 m/s 738 mmHg 90%
    18:00 -3°C° 0 mm 4 m/s 738 mmHg 89%
    19:00 -2°C° 0 mm 4 m/s 738 mmHg 89%
    20:00 -2°C° 0 mm 5 m/s 738 mmHg 88%
    21:00 -2°C° 0 mm 5 m/s 738 mmHg 87%
    22:00 -2°C° 0 mm 5 m/s 738 mmHg 86%
    23:00 -2°C° 0 mm 5 m/s 738 mmHg 85%

    Demain, 14 Décembre, Samedi

    Heure Température Précipitation Vent Pression Humidité
    00:00 -2°C° 0 mm 5 m/s 738 mmHg 85%
    01:00 -2°C° 0 mm 5 m/s 738 mmHg 85%
    02:00 -2°C° 0 mm 5 m/s 738 mmHg 84%
    03:00 -2°C° 0 mm 5 m/s 738 mmHg 84%
    04:00 -2°C° 0 mm 5 m/s 738 mmHg 84%
    05:00 -2°C° 0 mm 5 m/s 738 mmHg 83%
    06:00 -2°C° 0 mm 5 m/s 738 mmHg 84%
    07:00 -2°C° 0 mm 5 m/s 738 mmHg 85%
    08:00 -2°C° 0 mm 5 m/s 739 mmHg 86%
    09:00 -2°C° 0 mm 5 m/s 739 mmHg 85%
    10:00 -2°C° 0 mm 5 m/s 739 mmHg 84%
    11:00 -2°C° 0 mm 5 m/s 738 mmHg 84%
    12:00 -2°C° 0 mm 5 m/s 738 mmHg 83%
    13:00 -2°C° 0 mm 5 m/s 738 mmHg 83%
    14:00 -2°C° 0 mm 4 m/s 738 mmHg 83%
    15:00 -2°C° 0 mm 4 m/s 738 mmHg 84%
    16:00 -2°C° 0 mm 4 m/s 738 mmHg 86%
    17:00 -2°C° 0 mm 4 m/s 738 mmHg 87%
    18:00 -2°C° 0 mm 4 m/s 738 mmHg 89%
    19:00 -2°C° 0 mm 4 m/s 738 mmHg 90%
    20:00 -2°C° 0 mm 4 m/s 738 mmHg 92%
    21:00 -2°C° 0 mm 4 m/s 738 mmHg 92%
    22:00 -2°C° 0 mm 4 m/s 737 mmHg 93%
    23:00 -1°C° 0 mm 4 m/s 737 mmHg 93%

    Après-demain, 15 Décembre, Dimanche

    Heure Température Précipitation Vent Pression Humidité
    00:00 -1°C° 0 mm 4 m/s 737 mmHg 94%
    01:00 -1°C° 0 mm 4 m/s 737 mmHg 94%
    02:00 0°C° 0 mm 4 m/s 737 mmHg 94%
    03:00 0°C° 0.2 mm 4 m/s 736 mmHg 95%
    04:00 0°C° 0.2 mm 4 m/s 735 mmHg 95%
    05:00 0°C° 0.2 mm 4 m/s 735 mmHg 95%
    06:00 +1°C° 0.3 mm 4 m/s 735 mmHg 95%
    07:00 +1°C° 0.3 mm 4 m/s 735 mmHg 95%
    08:00 +1°C° 0.3 mm 4 m/s 735 mmHg 95%
    09:00 +2°C° 0.5 mm 5 m/s 734 mmHg 95%
    10:00 +2°C° 0.5 mm 5 m/s 734 mmHg 95%
    11:00 +2°C° 0.5 mm 5 m/s 734 mmHg 95%
    12:00 +2°C° 0.2 mm 5 m/s 735 mmHg 92%
    13:00 +1°C° 0.2 mm 4 m/s 735 mmHg 88%
    14:00 +1°C° 0.2 mm 4 m/s 736 mmHg 85%
    15:00 0°C° 0 mm 4 m/s 736 mmHg 86%
    16:00 0°C° 0 mm 4 m/s 737 mmHg 87%
    17:00 -1°C° 0 mm 4 m/s 737 mmHg 87%
    18:00 -1°C° 0 mm 4 m/s 738 mmHg 88%
    19:00 -1°C° 0 mm 3 m/s 738 mmHg 90%
    20:00 -1°C° 0 mm 3 m/s 739 mmHg 91%
    21:00 -2°C° 0 mm 4 m/s 739 mmHg 90%
    22:00 -2°C° 0 mm 4 m/s 739 mmHg 90%
    23:00 -1°C° 0 mm 4 m/s 739 mmHg 90%

    16 Décembre, Lundi

    Heure Température Précipitation Vent Pression Humidité
    00:00 -1°C° 0.1 mm 4 m/s 739 mmHg 92%
    01:00 -1°C° 0.1 mm 5 m/s 739 mmHg 94%
    02:00 -1°C° 0.1 mm 5 m/s 738 mmHg 97%
    03:00 0°C° 0.2 mm 5 m/s 739 mmHg 95%
    04:00 0°C° 0.2 mm 5 m/s 739 mmHg 93%
    05:00 +1°C° 0.2 mm 4 m/s 739 mmHg 92%
    06:00 +1°C° 0 mm 4 m/s 739 mmHg 92%
    07:00 0°C° 0 mm 4 m/s 740 mmHg 93%
    08:00 0°C° 0 mm 3 m/s 740 mmHg 94%
    09:00 +1°C° 0 mm 3 m/s 741 mmHg 92%
    10:00 +1°C° 0 mm 3 m/s 741 mmHg 90%
    11:00 +1°C° 0 mm 3 m/s 742 mmHg 87%
    12:00 +1°C° 0 mm 3 m/s 742 mmHg 88%
    13:00 +1°C° 0 mm 3 m/s 742 mmHg 89%
    14:00 +1°C° 0 mm 3 m/s 742 mmHg 89%
    15:00 0°C° 0 mm 3 m/s 742 mmHg 90%
    16:00 0°C° 0 mm 3 m/s 743 mmHg 90%
    17:00 -1°C° 0 mm 3 m/s 743 mmHg 90%
    18:00 -1°C° 0 mm 3 m/s 743 mmHg 91%
    19:00 -1°C° 0 mm 3 m/s 743 mmHg 91%
    20:00 -1°C° 0 mm 3 m/s 743 mmHg 92%
    21:00 -1°C° 0 mm 3 m/s 744 mmHg 92%
    22:00 -1°C° 0 mm 3 m/s 744 mmHg 92%
    23:00 -1°C° 0 mm 3 m/s 744 mmHg 93%

    17 Décembre, Mardi

    Heure Température Précipitation Vent Pression Humidité
    00:00 -1°C° 0 mm 3 m/s 744 mmHg 93%
    01:00 -1°C° 0 mm 3 m/s 744 mmHg 94%
    02:00 -1°C° 0 mm 2 m/s 744 mmHg 95%
    03:00 -1°C° 0 mm 2 m/s 744 mmHg 95%
    04:00 -1°C° 0 mm 2 m/s 745 mmHg 95%
    05:00 -1°C° 0 mm 2 m/s 745 mmHg 95%
    06:00 -1°C° 0 mm 2 m/s 745 mmHg 95%
    07:00 -1°C° 0 mm 2 m/s 745 mmHg 95%
    08:00 -1°C° 0 mm 2 m/s 744 mmHg 95%
    09:00 +1°C° 0 mm 2 m/s 745 mmHg 93%
    10:00 +1°C° 0 mm 3 m/s 745 mmHg 92%
    11:00 +2°C° 0 mm 3 m/s 745 mmHg 91%
    12:00 +2°C° 0 mm 3 m/s 744 mmHg 92%
    13:00 +2°C° 0 mm 3 m/s 744 mmHg 92%
    14:00 +2°C° 0 mm 3 m/s 743 mmHg 93%
    15:00 +1°C° 0 mm 4 m/s 743 mmHg 92%
    16:00 +1°C° 0 mm 4 m/s 743 mmHg 92%
    17:00 +1°C° 0 mm 4 m/s 743 mmHg 91%
    18:00 0°C° 0 mm 4 m/s 743 mmHg 91%
    19:00 0°C° 0 mm 4 m/s 743 mmHg 92%
    20:00 0°C° 0 mm 4 m/s 743 mmHg 92%
    21:00 0°C° 0 mm 4 m/s 743 mmHg 92%
    22:00 -1°C° 0 mm 4 m/s 743 mmHg 92%
    23:00 -1°C° 0 mm 4 m/s 743 mmHg 92%

    18 Décembre, Mercredi

    Heure Température Précipitation Vent Pression Humidité
    00:00 -1°C° 0 mm 4 m/s 743 mmHg 92%
    01:00 0°C° 0 mm 3 m/s 742 mmHg 92%
    02:00 0°C° 0 mm 3 m/s 742 mmHg 92%
    03:00 0°C° 0 mm 3 m/s 742 mmHg 92%
    04:00 0°C° 0 mm 3 m/s 742 mmHg 92%
    05:00 0°C° 0 mm 3 m/s 741 mmHg 92%
    06:00 0°C° 0 mm 3 m/s 741 mmHg 92%
    07:00 0°C° 0 mm 3 m/s 741 mmHg 93%
    08:00 0°C° 0 mm 3 m/s 741 mmHg 93%
    09:00 0°C° 0 mm 3 m/s 741 mmHg 93%
    10:00 0°C° 0 mm 3 m/s 741 mmHg 93%
    11:00 +1°C° 0 mm 3 m/s 741 mmHg 93%
    12:00 +1°C° 0 mm 3 m/s 740 mmHg 93%
    13:00 +1°C° 0 mm 3 m/s 740 mmHg 93%
    14:00 +1°C° 0 mm 3 m/s 739 mmHg 93%
    15:00 +1°C° 0 mm 3 m/s 739 mmHg 94%
    16:00 +1°C° 0 mm 3 m/s 739 mmHg 95%
    17:00 +1°C° 0 mm 3 m/s 739 mmHg 95%
    18:00 +1°C° 0 mm 3 m/s 739 mmHg 96%
    19:00 +1°C° 0 mm 3 m/s 739 mmHg 96%
    20:00 +2°C° 0 mm 3 m/s 739 mmHg 97%
    21:00 +2°C° 0 mm 3 m/s 739 mmHg 96%
    22:00 +2°C° 0 mm 3 m/s 739 mmHg 96%
    23:00 +3°C° 0 mm 3 m/s 739 mmHg 96%
    Voir plus